User: anonymous   Login
Location: Fountain Hills
(33.6120°N, 111.7170°W)
Time: 11:16:19
(UTC-07:00)
Language:

Hamsat - Orbit

View from above orbital plane
View from above orbital plane
View from above satellite
View from above satellite

Ground track
Ground track

The orbit data is extracted from the following two-line orbital elements,

1 28650U 05017B   15182.61637483  .00000733  00000-0  86319-4 0  9993
2 28650 097.5752 174.4255 0023779 347.9508 012.1137 14.87469115549593
Epoch (UTC): 01 July 2015 14:47:34
Eccentricity: 0.0023779
inclination: 97.5752°
perigee height: 589 km
apogee height: 622 km
right ascension of ascending node: 174.4255°
argument of perigee: 347.9508°
revolutions per day: 14.87469115
mean anomaly at epoch: 12.1137°
orbit number at epoch: 54959

The dashed part of the orbit path shows where the satellite is in the earth's shadow,  

DLR